SCP
0 0 0 0 0 0 0 0 0 0 0 0 0 0 0 0 0 0 0 0 0 0
0 0 0 0 0 0 0 0 0 0 0 0 0 0 0 0 0 0 0 0 0 0
0 0 0 0 0 0 0 0 0 0 0 0 0 0 0 0 0 0 0 0 0 0
0 0 0 0 0 0 0 0 0 0 0 0 0 0 0 0 0 0 0 0 0 0
0 0 0 0 0 0 0 0 0 0 0 0 0 0 0 0 0 0 0 0 0 0
0 0 0 0 0 0 0 0 0 0 0 0 0 0 0 0 0 0 0 0 0 0
0 0 0 0 0 0 0 0 0 0 0 0 0 0 0 0 0 0 0 0 0 0
0 0 0 0 0 0 0 0 0 0 0 0 0 0 0 0 0 0 0 0 0 0
0 0 0 0 0 0 0 0 0 0 0 0 0 0 0 0 0 0 0 0 0 0
0 0 0 0 0 0 0 0 0 0 0 0 0 0 0 0 0 0 0 0 0 0
0 0 0 0 0 0 0 0 0 0 0 0 0 0 0 0 0 0 0 0 0 0
0 0 0 0 0 0 0 0 0 0 0 0 0 0 0 0 0 0 0 0 0 0
0 0 0 0 0 0 0 0 0 0 0 0 0 0 0 0 0 0 0 0 0 0
0 0 0 0 0 0 0 0 0 0 0 0 0 0 0 0 0 0 0 0 0 0
Wind_Speed_500mb
41 43 43 41 41 39 39 39 39 37 37 39 44 50 57 68 79 86 87 82 81 87
44 45 41 39 38 36 36 36 36 36 36 39 44 56 65 75 85 91 86 83 82 78
46 45 40 37 34 33 32 32 32 31 34 41 52 62 70 80 90 89 82 86 83 84
47 43 38 35 32 30 29 29 28 29 35 47 58 66 73 80 90 88 86 85 91 92
47 41 35 32 30 28 27 27 24 29 38 49 59 67 74 82 88 90 89 90 89 83
43 37 33 30 27 26 26 23 24 31 41 51 60 68 74 81 90 89 85 81 72 78
38 34 32 28 26 24 24 19 22 30 40 49 59 66 74 83 91 84 76 67 67 74
36 33 30 26 24 23 21 19 21 29 37 46 55 65 76 82 88 78 70 66 62 65
35 33 29 26 23 23 20 19 22 29 37 44 53 63 69 78 84 69 63 63 62 59
35 33 29 26 24 22 20 20 22 28 34 42 51 59 66 72 76 60 54 53 57 58
35 33 30 27 24 23 21 20 22 27 33 40 48 57 65 70 71 59 44 43 46 51
33 33 31 28 26 25 23 20 20 25 30 36 44 55 62 67 68 64 47 39 33 36
34 35 31 29 28 26 25 23 19 20 25 31 39 49 58 63 64 63 58 39 36 34
36 34 33 33 32 29 26 24 22 18 21 24 33 44 52 57 63 61 59 51 45 37
Wind_Direction_500mb
279 292 296 297 304 310 315 320 325 327 327 329 335 339 335 330 329 324 318 309 301 296
276 288 289 294 302 308 313 318 325 325 326 336 341 337 334 332 330 325 320 309 305 301
273 283 283 290 297 304 309 315 321 322 331 339 342 339 336 333 330 326 313 312 311 306
272 277 277 286 294 298 306 312 316 324 338 342 342 341 337 334 330 328 321 321 318 310
267 267 274 283 289 295 304 309 315 329 340 343 343 342 337 334 335 335 330 323 317 311
260 261 271 279 286 292 301 304 319 332 341 345 345 342 338 337 339 339 327 324 325 328
248 257 265 274 278 288 293 298 318 332 343 346 346 344 342 341 343 334 331 331 337 336
244 253 260 268 272 281 284 295 314 333 344 349 347 348 347 346 342 337 336 342 345 346
243 250 259 264 268 275 277 294 314 334 344 349 351 353 350 349 343 341 346 346 353 358
241 247 255 259 262 268 271 289 312 332 341 352 353 354 353 353 347 346 352 354 357 3
238 245 252 254 257 261 261 283 306 327 340 352 353 356 357 356 351 356 353 359 8 10
239 244 252 255 252 254 257 272 298 319 335 350 354 359 359 359 356 3 360 2 6 17
237 241 248 255 253 254 258 265 284 308 326 345 354 359 1 359 359 5 4 8 12 18
238 243 246 249 251 252 255 261 273 290 313 338 353 1 3 1 2 6 5 8 11 8
Wind_Speed_850mb
41 43 43 41 41 39 39 39 39 37 37 39 44 50 57 68 79 86 87 82 81 87
44 45 41 39 38 36 36 36 36 36 36 39 44 56 65 75 85 91 86 83 82 78
46 45 40 37 34 33 32 32 32 31 34 41 52 62 70 80 90 89 82 86 83 84
47 43 38 35 32 30 29 29 28 29 35 47 58 66 73 80 90 88 86 85 91 92
47 41 35 32 30 28 27 27 24 29 38 49 59 67 74 82 88 90 89 90 89 83
43 37 33 30 27 26 26 23 24 31 41 51 60 68 74 81 90 89 85 81 72 78
38 34 32 28 26 24 24 19 22 30 40 49 59 66 74 83 91 84 76 67 67 74
36 33 30 26 24 23 21 19 21 29 37 46 55 65 76 82 88 78 70 66 62 65
35 33 29 26 23 23 20 19 22 29 37 44 53 63 69 78 84 69 63 63 62 59
35 33 29 26 24 22 20 20 22 28 34 42 51 59 66 72 76 60 54 53 57 58
35 33 30 27 24 23 21 20 22 27 33 40 48 57 65 70 71 59 44 43 46 51
33 33 31 28 26 25 23 20 20 25 30 36 44 55 62 67 68 64 47 39 33 36
34 35 31 29 28 26 25 23 19 20 25 31 39 49 58 63 64 63 58 39 36 34
36 34 33 33 32 29 26 24 22 18 21 24 33 44 52 57 63 61 59 51 45 37
Wind_Direction_850mb
279 292 296 297 304 310 315 320 325 327 327 329 335 339 335 330 329 324 318 309 301 296
276 288 289 294 302 308 313 318 325 325 326 336 341 337 334 332 330 325 320 309 305 301
273 283 283 290 297 304 309 315 321 322 331 339 342 339 336 333 330 326 313 312 311 306
272 277 277 286 294 298 306 312 316 324 338 342 342 341 337 334 330 328 321 321 318 310
267 267 274 283 289 295 304 309 315 329 340 343 343 342 337 334 335 335 330 323 317 311
260 261 271 279 286 292 301 304 319 332 341 345 345 342 338 337 339 339 327 324 325 328
248 257 265 274 278 288 293 298 318 332 343 346 346 344 342 341 343 334 331 331 337 336
244 253 260 268 272 281 284 295 314 333 344 349 347 348 347 346 342 337 336 342 345 346
243 250 259 264 268 275 277 294 314 334 344 349 351 353 350 349 343 341 346 346 353 358
241 247 255 259 262 268 271 289 312 332 341 352 353 354 353 353 347 346 352 354 357 3
238 245 252 254 257 261 261 283 306 327 340 352 353 356 357 356 351 356 353 359 8 10
239 244 252 255 252 254 257 272 298 319 335 350 354 359 359 359 356 3 360 2 6 17
237 241 248 255 253 254 258 265 284 308 326 345 354 359 1 359 359 5 4 8 12 18
238 243 246 249 251 252 255 261 273 290 313 338 353 1 3 1 2 6 5 8 11 8